Theta_e
317 324 325 325 336 339 341 336 333 331 330 330 329 329 329 329 335 346 342 342 350 346 335 337 337 337 340 346 347 344 342 341 340 339 341 338 335 336 337 334 334 331 327 325 323 320 318 316 315
317 324 326 326 338 344 345 337 334 331 329 328 328 328 328 330 335 337 340 342 348 347 335 339 338 336 335 341 348 347 344 343 342 341 341 339 336 335 333 333 332 327 324 322 320 317 317 316 315
322 326 325 326 335 341 346 343 341 332 327 327 327 329 329 332 334 336 338 343 346 349 339 344 336 335 331 337 345 348 346 344 343 343 342 340 337 335 333 333 330 326 323 320 318 317 317 317 317
324 326 326 326 326 335 340 340 338 337 327 327 327 328 330 332 332 334 340 343 343 350 346 345 336 335 330 332 341 348 347 346 345 344 343 341 339 336 334 332 329 325 323 321 318 318 318 319 318
324 325 328 328 326 325 334 335 337 337 332 327 327 327 331 332 329 331 338 343 343 345 348 346 336 337 334 330 337 346 348 348 347 346 344 342 340 338 334 332 328 325 322 320 321 319 318 319 320
323 326 328 326 327 327 326 329 335 335 335 331 328 327 330 331 330 328 331 344 344 343 348 345 338 336 338 333 335 345 348 349 349 347 346 342 340 339 335 332 327 325 321 320 323 320 319 320 321
322 325 328 327 326 326 327 326 328 328 331 333 330 333 331 331 329 328 329 343 343 343 350 347 341 336 339 338 334 341 347 349 349 349 348 343 340 338 334 331 327 326 323 320 323 325 322 320 320
322 323 324 326 328 327 326 326 325 325 327 329 331 333 334 331 328 328 329 339 341 341 354 353 345 337 342 341 340 337 341 344 347 349 348 345 341 338 334 332 328 326 324 321 320 323 322 322 320
320 323 325 324 325 325 326 326 326 326 325 325 327 331 332 331 328 327 328 332 343 340 353 354 347 345 347 347 343 337 335 337 341 344 342 341 340 338 334 331 333 332 326 324 322 322 323 325 325
320 322 323 323 324 325 326 325 327 327 325 326 326 327 330 331 329 328 327 329 336 342 343 351 345 345 346 344 346 340 340 336 335 335 335 335 336 342 343 341 339 334 333 333 326 326 326 326 326
319 321 321 323 324 324 324 324 325 327 327 327 327 328 329 331 329 328 326 326 333 337 341 347 344 344 344 343 344 343 346 342 341 339 342 342 339 340 342 343 343 341 340 338 337 333 331 328 333
318 319 321 322 322 322 323 324 324 326 328 328 328 329 327 328 330 327 325 325 329 333 341 343 344 345 344 342 345 347 343 344 345 343 343 346 345 344 342 344 344 346 347 345 341 340 341 339 338
318 319 319 319 320 320 320 321 323 324 326 328 327 327 325 325 326 327 325 324 326 333 338 339 344 348 349 348 350 349 343 343 344 345 343 345 350 345 346 344 346 347 346 344 344 343 341 341 340
318 318 319 319 319 319 319 319 320 323 325 325 327 327 325 324 324 329 326 323 325 334 332 335 341 341 344 346 347 347 347 343 343 343 346 345 346 349 345 347 345 342 341 339 342 341 339 339 338
317 317 317 318 318 318 319 319 319 319 320 320 321 325 325 323 322 327 326 326 325 329 331 336 342 340 341 344 348 348 346 344 345 343 345 347 346 348 348 347 344 342 341 338 336 336 338 338 339
315 316 316 317 317 317 318 318 318 319 320 320 320 322 323 322 322 321 324 327 326 326 332 329 332 344 341 345 343 346 345 345 343 341 342 345 349 345 346 346 343 342 340 338 336 336 337 337 339
316 315 315 315 317 317 317 317 318 318 319 320 321 322 322 322 322 321 320 323 325 326 330 333 332 344 344 349 348 344 348 345 341 341 340 341 343 347 345 347 343 341 338 337 336 337 338 339 341
315 316 317 317 317 317 316 316 317 318 318 320 320 320 321 322 322 321 320 322 324 326 327 324 331 335 346 341 343 346 345 345 345 345 340 340 341 343 346 343 346 341 340 337 336 338 339 339 344
318 318 317 317 318 318 317 317 317 318 318 318 320 322 322 322 323 320 321 322 320 324 328 330 329 331 333 332 332 336 339 346 344 345 344 342 342 339 343 346 341 342 343 338 337 338 337 345 346
317 317 316 315 316 316 316 317 317 317 318 319 319 320 321 322 322 323 321 320 323 325 325 327 329 330 329 329 328 329 330 328 333 340 345 344 343 341 340 342 343 342 340 339 340 339 341 345 345
316 316 315 315 316 316 317 318 318 317 318 319 319 319 320 321 321 323 323 322 323 324 324 323 322 325 327 327 324 324 326 327 327 327 329 336 346 346 343 341 342 341 341 338 340 343 344 347 351
314 315 315 316 316 316 316 318 318 318 319 319 319 319 320 319 320 322 323 324 323 322 321 321 323 321 321 327 327 325 326 327 326 328 329 331 337 345 347 343 341 342 341 341 339 341 344 350 351
315 315 315 315 316 316 316 317 317 318 318 318 320 320 318 318 319 320 320 319 320 320 319 321 322 321 320 321 325 328 328 329 327 327 325 328 336 337 349 348 346 345 344 342 347 345 348 352 352
315 315 315 315 315 317 316 317 318 318 319 319 319 318 318 318 319 320 319 320 320 319 319 319 321 323 323 322 323 324 327 329 328 326 331 332 331 333 331 335 350 347 346 347 346 344 346 354 350
315 315 317 318 319 319 318 319 321 321 317 318 319 318 317 315 317 318 320 322 321 320 320 320 320 322 325 325 324 324 324 326 329 329 330 329 326 331 340 335 350 349 349 348 351 350 347 350 351
317 317 318 320 323 321 319 321 319 319 319 317 317 318 316 315 316 318 319 322 320 319 320 320 320 322 323 324 324 324 324 325 326 327 327 326 326 325 329 336 335 334 347 346 347 349 351 348 351
318 319 317 318 320 323 321 317 317 319 320 318 316 316 316 316 318 317 318 318 318 318 319 320 320 320 322 321 321 323 323 323 325 326 327 329 333 333 332 326 334 341 340 341 335 332 336 350 349
317 317 317 318 323 323 317 316 317 319 319 317 315 315 316 317 317 317 319 319 317 316 316 320 320 322 320 322 321 320 320 324 324 325 327 326 327 328 328 331 336 335 347 349 349 343 345 351 350
317 319 318 317 319 322 321 317 320 319 319 318 318 316 317 317 316 316 318 318 317 316 317 319 321 321 321 319 319 320 319 319 322 324 325 327 328 329 329 325 326 331 343 350 353 353 353 353 353
317 318 319 323 322 322 320 321 319 318 319 319 319 316 316 318 318 317 318 318 317 317 317 317 319 319 319 318 317 317 319 320 323 322 324 326 329 330 331 331 331 329 336 346 353 353 354 354 355
Wind_Speed
15 19 12 9 6 6 15 19 22 5 3 8 13 9 14 14 16 11 21 21 23 22 26 28 27 26 23 21 21 21 20 19 18 17 16 16 15 14 13 12 11 9 7 6 6 5 4 3 4
14 14 13 5 6 9 15 22 18 5 14 10 6 6 8 1 16 15 18 15 8 20 25 26 27 27 24 21 21 20 21 20 19 18 17 15 14 13 12 11 9 8 7 6 4 4 3 2 2
14 13 6 5 10 11 15 23 19 11 9 2 2 2 8 8 17 9 16 10 2 21 22 23 28 27 26 22 21 21 20 20 18 18 16 15 14 13 12 10 8 6 5 4 3 3 2 1 1
8 8 6 9 16 13 15 19 19 19 3 4 4 3 5 12 7 12 12 10 8 20 22 22 29 28 27 26 23 23 21 21 19 17 15 14 13 13 11 10 8 5 4 3 3 3 2 2 2
13 5 10 15 16 17 11 12 23 15 15 5 10 8 7 16 14 14 10 10 7 17 23 23 29 27 26 26 24 24 22 21 19 17 16 15 14 12 11 10 8 7 5 5 5 4 4 4 4
10 9 10 13 18 19 14 10 14 17 23 16 6 5 4 14 15 13 15 8 11 14 28 24 27 29 26 24 24 22 21 19 18 17 16 15 14 13 12 10 9 8 7 6 7 6 6 6 6
14 11 18 20 18 20 18 16 12 13 18 23 18 14 11 17 15 14 15 9 4 10 29 23 27 30 25 24 25 24 22 18 17 16 15 15 15 14 13 12 11 9 8 8 8 9 9 9 9
14 14 23 20 18 21 19 12 17 14 19 12 20 14 16 8 13 18 14 8 1 9 26 21 23 28 23 21 22 23 22 20 17 16 15 15 16 15 14 13 13 12 11 10 10 11 11 12 11
20 15 17 23 23 20 18 19 12 13 15 15 18 17 21 12 12 17 17 12 9 7 29 22 21 23 21 18 19 21 21 19 18 17 16 16 15 14 15 15 12 12 13 13 13 13 12 13 14
18 16 24 23 22 21 19 21 18 17 14 17 14 15 27 30 7 9 17 16 11 13 19 24 24 22 21 20 19 21 19 22 21 18 17 19 15 14 11 12 12 14 15 15 16 14 14 15 15
21 21 22 22 22 21 21 23 22 12 13 12 14 17 18 24 9 4 12 19 7 11 13 25 25 25 21 20 23 19 19 20 20 20 18 14 16 15 17 13 17 17 16 17 15 14 15 15 14
23 23 22 23 22 22 23 21 22 14 17 14 12 8 8 12 8 4 6 15 16 15 11 10 24 25 22 20 23 18 23 21 21 22 22 20 17 18 17 17 15 15 11 12 10 16 15 14 11
21 22 20 21 19 19 21 24 21 22 16 13 16 11 7 9 15 10 5 7 17 4 14 5 14 13 9 11 9 9 26 24 22 21 23 24 19 18 16 18 12 13 13 14 12 11 14 16 15
18 16 19 15 19 21 20 19 24 21 17 19 18 20 12 11 13 11 12 10 3 6 6 7 5 9 16 19 15 10 6 20 21 22 24 25 23 18 19 17 18 17 14 12 14 16 17 19 16
14 19 19 19 18 21 18 21 25 20 21 24 23 19 17 11 16 16 20 21 13 11 7 5 7 13 17 19 17 16 6 10 7 17 17 24 26 21 16 17 17 17 17 16 17 19 16 15 16
18 16 18 19 22 23 21 25 22 20 22 23 24 19 13 12 12 15 15 16 18 17 18 11 11 13 8 12 13 16 14 12 12 15 19 17 23 23 24 21 21 19 19 18 21 22 21 16 20
14 17 21 23 23 19 17 22 15 19 18 19 16 12 14 11 9 12 15 15 17 17 16 16 14 18 15 7 11 17 11 15 18 16 18 16 21 21 27 22 26 21 22 22 20 21 23 18 21
18 20 15 18 13 15 15 17 18 18 17 15 9 12 12 12 11 11 12 12 12 12 9 14 20 24 22 19 16 14 14 12 18 17 21 19 17 24 23 27 20 23 23 27 22 24 20 23 21
16 17 17 21 22 17 16 17 14 14 18 20 15 17 17 16 14 18 9 11 9 7 6 8 11 21 27 25 14 9 8 11 18 20 17 21 21 23 24 24 26 23 23 26 25 23 19 21 20
14 17 19 20 20 18 20 22 18 19 20 20 20 18 14 14 15 14 21 19 13 9 8 7 7 6 15 23 21 16 15 22 15 5 8 19 21 21 24 28 25 23 29 28 23 20 21 24 25
15 17 19 20 20 21 21 20 19 25 26 26 23 20 17 15 15 15 19 23 17 12 7 5 5 3 2 6 15 15 17 19 21 23 25 20 14 19 28 34 30 32 27 28 23 23 25 18 19
17 16 17 17 17 15 16 17 20 21 21 18 12 13 15 12 9 7 14 19 17 8 8 5 5 4 3 2 7 11 18 13 18 18 15 21 25 26 27 34 33 31 28 25 27 25 26 25 23
19 16 16 20 19 21 21 14 19 20 22 21 18 18 9 7 7 9 6 5 10 7 6 9 7 8 6 8 6 7 7 12 14 16 16 23 24 27 24 29 32 33 21 26 23 27 28 21 20
18 16 18 18 17 16 24 21 21 18 20 17 14 14 12 7 10 11 14 14 7 12 16 14 6 8 9 8 8 12 12 13 13 13 15 13 17 30 42 38 31 24 28 29 28 28 24 24 21
21 17 13 16 13 15 22 14 10 16 3 12 14 11 11 9 9 8 9 13 17 20 14 10 12 14 12 10 11 12 14 15 19 16 18 23 16 23 34 38 31 31 28 31 24 20 22 26 35
21 18 11 15 15 17 22 6 11 12 16 10 5 14 6 5 8 10 11 11 14 11 16 15 10 12 13 13 13 12 14 17 17 20 21 22 23 28 32 31 37 31 32 20 23 22 30 28 34
18 18 19 18 13 11 17 26 23 19 22 11 8 7 8 6 7 7 5 1 8 13 14 14 13 14 11 16 20 18 18 17 18 20 23 21 22 24 24 33 30 26 26 31 25 26 33 35 41
16 17 15 10 7 18 17 19 12 18 10 11 8 9 8 7 10 8 8 12 11 13 17 17 17 19 18 21 16 17 20 20 20 22 26 26 28 27 28 30 28 29 26 28 30 39 38 37 34
13 17 18 16 13 15 16 15 4 3 2 12 11 10 10 9 11 9 10 13 17 12 19 19 23 23 23 17 16 16 19 23 24 24 24 26 26 28 27 33 37 31 25 27 30 36 37 34 33
19 18 16 15 12 12 11 17 10 7 5 12 16 8 11 11 13 13 11 10 12 14 20 16 14 15 15 12 15 18 13 16 23 25 26 26 27 27 28 30 31 35 29 24 32 33 34 34 30
Wind_Direction
306 317 291 276 245 234 258 243 261 96 338 34 27 349 344 352 41 101 53 18 120 137 159 160 160 159 164 173 172 170 168 164 162 162 155 149 145 147 148 147 143 137 135 141 138 134 135 122 113
315 313 284 273 250 237 239 244 254 36 75 63 358 290 277 346 42 42 31 1 94 147 164 167 168 162 166 178 179 179 174 171 171 168 161 156 153 154 154 151 146 145 151 151 150 142 142 127 101
302 284 290 245 231 237 249 260 325 353 62 43 33 0 327 37 46 14 2 350 62 145 169 175 173 170 167 177 185 186 182 178 178 173 169 165 162 164 162 159 155 153 161 160 170 163 167 160 129
291 274 240 262 260 232 233 284 287 302 89 271 238 307 93 73 58 13 5 341 287 161 162 186 181 176 173 177 186 188 188 185 183 180 177 175 173 174 174 170 165 166 177 198 208 219 216 245 272
246 273 262 257 250 260 207 238 262 287 297 171 215 241 143 96 61 12 20 348 268 184 162 188 191 185 180 180 186 189 191 191 189 187 184 185 185 188 186 183 180 184 197 216 232 236 241 252 260
252 227 256 258 262 257 247 222 229 260 285 293 293 241 260 88 56 6 342 35 297 185 163 182 193 190 185 187 187 191 194 197 197 196 193 193 195 198 200 202 200 204 206 227 245 248 248 255 258
239 248 243 246 254 272 273 214 186 250 258 266 273 326 303 61 31 359 326 56 293 195 156 172 185 194 192 190 191 192 196 201 206 206 206 202 204 206 209 213 216 222 226 233 241 253 257 259 259
240 245 257 257 259 249 261 224 183 213 247 284 276 284 288 55 31 348 350 30 57 214 150 159 177 189 193 197 199 197 198 203 209 212 215 215 212 213 215 223 226 231 235 244 248 253 261 263 266
244 248 252 252 253 263 264 258 189 213 209 248 263 242 254 301 47 349 343 353 18 235 144 148 165 178 186 190 201 204 203 204 206 210 214 217 219 227 226 230 234 244 246 250 251 255 263 271 274
235 242 245 253 268 272 269 258 221 217 208 236 236 267 247 264 79 4 335 347 20 314 158 157 163 177 187 188 199 204 204 206 209 213 218 216 215 218 233 239 245 251 257 258 257 258 264 267 272
231 245 253 261 267 270 275 278 282 202 235 211 232 248 239 246 98 12 340 327 62 311 282 154 163 175 184 195 196 201 198 203 209 204 206 220 207 216 230 232 236 239 255 255 262 264 266 263 263
245 248 248 255 264 278 280 284 282 250 215 194 223 261 295 305 308 132 358 316 360 354 316 135 164 172 183 199 194 193 194 200 200 206 204 203 212 216 224 223 236 235 227 248 233 250 257 250 257
254 251 258 261 265 265 269 276 279 273 269 200 222 226 272 296 305 173 205 317 349 50 356 224 149 156 174 226 216 190 191 197 197 204 208 208 209 215 220 228 223 230 221 240 230 225 245 241 244
289 277 277 275 274 260 261 262 270 264 269 275 220 229 215 256 277 226 196 227 221 58 12 348 253 216 224 227 258 257 197 188 198 204 208 208 210 216 219 223 227 234 241 243 235 236 232 233 240
282 268 270 269 262 265 274 256 251 259 257 256 256 248 212 206 258 263 194 192 217 153 164 114 275 228 224 231 238 248 230 240 209 208 212 215 209 213 224 220 228 227 238 241 241 236 234 238 236
276 265 267 261 248 241 235 254 255 252 245 248 254 253 230 215 225 288 288 257 185 172 180 200 127 240 196 228 237 238 238 226 261 253 230 220 214 216 214 219 226 226 231 237 242 248 253 243 243
249 257 259 262 249 246 227 244 261 264 264 269 243 266 225 220 210 239 280 263 163 173 177 201 168 177 215 169 224 226 201 228 239 254 254 234 221 221 218 225 228 226 229 232 236 242 247 242 241
269 267 285 273 252 251 229 249 264 273 267 271 250 260 258 250 218 220 247 153 136 151 162 187 193 165 176 165 174 196 190 218 227 241 244 253 234 224 221 227 236 232 235 236 235 237 240 243 248
286 295 297 293 300 307 297 278 273 283 285 280 261 212 219 233 244 176 174 144 145 149 155 202 185 204 180 187 179 200 188 210 211 220 240 243 250 243 232 225 235 238 239 238 242 235 244 259 246
295 284 279 283 280 279 278 273 276 275 270 268 268 267 244 225 226 183 175 165 167 168 191 183 180 188 219 201 195 215 236 245 239 294 228 237 231 231 230 233 225 235 242 243 256 240 237 240 238
262 264 272 278 286 287 290 284 279 266 253 250 247 250 252 245 236 207 176 168 166 168 194 221 224 205 269 285 200 211 232 241 263 250 251 251 243 237 238 239 229 225 236 241 246 244 238 241 248
271 276 286 293 289 280 285 283 282 287 291 274 231 235 234 231 239 266 171 153 154 186 171 251 249 232 244 259 289 178 217 222 250 254 253 258 253 244 236 234 228 224 226 238 249 246 236 227 246
280 291 295 296 287 288 270 267 276 267 259 247 238 205 204 230 202 133 143 187 184 193 250 221 251 286 283 270 275 277 234 232 245 254 252 247 249 249 236 237 229 224 241 238 233 246 242 228 232
256 290 278 274 274 262 264 257 262 259 268 258 217 162 170 180 190 185 193 180 168 232 220 224 234 249 269 277 279 285 276 278 262 249 262 255 260 262 253 248 233 234 233 230 232 243 253 238 242
253 249 266 260 251 252 260 284 318 300 246 318 135 148 169 190 206 201 183 172 192 212 204 232 239 249 229 221 248 260 273 271 279 276 261 259 245 265 254 236 228 226 231 233 235 252 246 242 236
259 247 254 271 278 281 287 223 267 309 316 237 183 177 170 188 251 215 202 193 211 212 191 207 233 257 252 261 250 246 248 254 256 266 272 270 272 259 266 271 249 235 216 231 237 254 252 245 244
252 241 260 283 307 289 277 277 278 234 232 241 228 187 241 211 235 254 192 258 251 253 221 206 206 239 257 253 271 280 274 263 261 248 249 257 252 256 267 264 276 273 258 230 237 264 260 249 241
274 290 275 259 264 270 269 282 296 342 170 231 227 239 227 196 219 240 232 225 235 255 265 215 214 213 231 241 238 263 277 277 266 270 265 261 264 267 266 270 278 274 264 246 245 248 250 245 243
254 237 268 262 243 253 267 269 156 261 178 214 258 203 217 223 229 249 243 236 245 266 252 235 213 220 216 228 240 253 258 273 281 279 275 272 268 269 270 270 271 272 264 241 232 228 237 235 228
271 273 256 259 250 234 283 278 135 243 45 316 292 253 243 232 238 246 261 270 279 266 262 253 242 236 235 244 256 256 275 289 270 269 274 275 270 265 261 262 265 265 261 257 233 235 231 226 213